Regional Weather Roundup
Issued by NWS Charleston, SC

Current Version | Previous Version | Graphics & Text | Print | Product List | Glossary On
Versions: 1 2 3 4 5 6 7 8 9 10 11 12 13 14 15 16 17 18 19 20 21 22 23 24 25 26 27 28 29 30 31 32 33 34 35 36 37 38 39 40 41 42 43 44 45 46 47 48 49 50
000 ASUS42 KCHS 241013 RWRCHS REGIONAL WEATHER ROUNDUP NATIONAL WEATHER SERVICE CHARLESTON SC 600 AM EDT TUE MAY 24 2016 NOTE: "FAIR" INDICATES FEW OR NO CLOUDS BELOW 12,000 FEET WITH NO SIGNIFICANT WEATHER AND/OR OBSTRUCTIONS TO VISIBILITY. NOT ALL STATIONS ARE QUALITY CONTROLLED. USE DATA WITH CAUTION... ESPECIALLY DEWPOINT OBSERVATIONS. SCZ027-030-031-034>040-042>050-241100- ...SOUTHEAST SOUTH CAROLINA... CITY SKY/WX TMP DP RH WIND PRES REMARKS N CHARLESTON PTCLDY 57 54 89 N3 30.08R WATERFRONT PRK N/A 66 60 81 VRB3 30.06R MOUNT PLEASANT FAIR 55 54 94 CALM 30.08R JOHNS ISLAND FAIR 57 55 94 CALM 30.08R PINOPOLIS N/A 63 55 77 CALM 30.02R MONCKS CORNER FAIR 50 48 93 CALM 30.08S FOG SUMMERVILLE FAIR 54 54 100 CALM 30.09R BEAUFORT MCAS PTCLDY 63 59 87 CALM 30.08R BEAUFORT ARPT FAIR 64 59 82 NE5 30.07R HILTON HEAD IS NOT AVBL WALTERBORO SUNNY 55 55 100 CALM 30.09R ALLENDALE FAIR 59 55 88 CALM 30.08R ...SOUTHERN MIDLANDS AND PEE DEE... CITY SKY/WX TMP DP RH WIND PRES REMARKS GEORGETOWN FAIR 52 52 100 CALM 30.08S KINGSTREE FAIR 48 46 93 CALM 30.09R ORANGEBURG CLEAR 57 55 93 CALM 30.09R BARNWELL PTSUNNY 64 61 88 CALM 30.09S AIKEN CLOUDY 59 54 82 NE3 30.13R MANNING FAIR 50 48 93 CALM 30.09R COLUMBIA MOCLDY 60 54 80 CALM 30.08R SUMTER CLEAR 55 52 88 SW2 30.06S FLORENCE CLEAR 54 51 90 CALM 30.08R MYRTLE BEACH CLEAR 55 46 71 W3 30.10R N MYRTLE BEACH CLEAR 53 51 93 NW3 30.07R $$ GAZ063-065-086>088-099>101-113>116-118-119-134>141-150-241100- ...SOUTHEAST GEORGIA... CITY SKY/WX TMP DP RH WIND PRES REMARKS SAVANNAH ARPT PTCLDY 62 59 90 N3 30.07R HUNTER AAF CLEAR 63 63 100 CALM 30.04R FORT STEWART CLEAR 59 57 92 CALM 30.04R STATESBORO CLEAR 58 58 98 CALM 30.08R SYLVANIA SUNNY 63 56 80 CALM 30.09R CLAXTON FAIR 56 56 100 CALM 30.08R FOG ...CSRA...CENTRAL AND FAR SOUTHEAST GEORGIA... CITY SKY/WX TMP DP RH WIND PRES REMARKS THOMSON CLEAR 59 56 92 CALM 30.12R AUGUSTA-BUSH CLEAR 53 53 100 CALM 30.08R AUGUSTA-DANIEL CLEAR 64 53 67 E5 30.09R SWAINSBORO FAIR 61 55 82 E3 30.08R VIDALIA CLEAR 59 57 94 E3 30.07R EASTMAN FAIR 57 57 100 CALM 30.09R FOG HAZLEHURST FAIR 64 57 77 CALM 30.05R ALMA CLEAR 58 56 93 S3 30.05R WAYCROSS CLEAR 59 58 94 CALM 30.06R JESUP FAIR 52 52 100 CALM 30.06R BAXLEY FAIR 59 57 94 CALM 30.06R BRUNSWICK CLEAR 59 59 100 CALM 30.07R SAINT SIMONS CLEAR 65 62 90 CALM 30.05S $$ SCZ027-028-034-036>038-045-046-048>050-GAZ119-141-241100- ...LAKE AND SUPPLEMENTAL COASTAL OBSERVATIONS... STATION/POSITION TIME TEMP WIND PRES WAVE SWELL AIR SEA DIR/SP/G HT/PER HT/PER/DIR (UTC) (F) (DEG/KT/KT) (MB) (FT/S) (FT/S/D) WINYAH BAY NOT AVBL LAKE MURRAY 0900 64 140/ 3/ 5 1017.9R ACE BASIN NERRS NOT AVBL FORT PULASKI 0900 71 75 110/ 4/ 4 1017.9R SAPELO ISLAND 0900 62 CALM 1017.0S $$ ANZ835-935-AMZ111-154-330-350-352-354-370-450-454-472-241100- ...C-MAN AND BUOY OBSERVATIONS... STATION/POSITION TIME TEMP WIND PRES WAVE SWELL AIR SEA DIR/SP/G HT/PER HT/PER/DIR (UTC) (F) (DEG/KT/KT) (MB) (FT/S) (FT/S/D) BUOY 41004 0950 70 75 10/ 8/ 10 1018.1R 2/ 9 2/ 9 BUOY 41008 0950 75 76 130/ 4/ 6 1017.9R 2/ 8 2/ 90/ 8 FOLLY BEACH CMAN 0900 67 360/ 6/ 7 1018.0F CAPERS NEARSHORE 0908 68 74 30/ 4/ 6 1018.0R FRIPP NEARSHORE 0908 72 75 70/ 8/ 10 1017.4R STATION/POSITION TIME TEMP WIND PRES WAVE SWELL AIR SEA DIR/SP/G HT/PER HT/PER/DIR (UTC) (F) (DEG/KT/KT) (MB) (FT/S) (FT/S/D) 5E ST. MARYS GA 0921 77 N/A 2/ 9 FRYING PAN BUOY 0900 67 76 320/ 10/ 14 1017.1R BUOY 41025 0950 65 67 270/ 12/ 14 1016.4R 4/10 3/ 70/10 CAPE LOOKOUT NC 1000 64 290/ 11/ 13 1016.9R BUOY 41002 0950 73 77 250/ 10/ 14 1016.8R 4/ 7 3/ 20/ 7 BUOY 41010 0920 76 78 70/ 8/ 10 1017.1F ST AUGUSTINE FL 1000 77 78 130/ 10/ 11 1018.4R $$

USA.gov is the U.S. government's official web portal to all federal, state and local government web resources and services.